Total_Precipitation_Accumulation
0.05 0.09 0.14 0.14 0.11 0.10 0.09 0.09 0.11 0.15 0.25 0.36 0.45 0.54 0.60 0.61 0.61 0.63 0.59 0.62 0.76 0.89 1.06 1.05 0.96 0.89 0.93 1.16 1.38 1.60 1.87 1.97 2.01 2.10 2.24 2.43 2.59 2.61 2.57 2.54 2.47 2.63 2.62 2.54
0.06 0.08 0.10 0.10 0.10 0.09 0.08 0.08 0.10 0.15 0.26 0.39 0.51 0.56 0.52 0.55 0.53 0.57 0.66 0.73 0.89 1.03 1.17 1.27 1.30 1.28 1.31 1.46 1.73 2.04 2.35 2.47 2.58 2.66 2.74 2.84 2.93 2.94 2.96 2.89 2.82 2.74 2.62 2.68
0.13 0.13 0.14 0.12 0.12 0.12 0.11 0.12 0.14 0.20 0.30 0.45 0.59 0.57 0.63 0.66 0.63 0.72 0.79 0.88 1.00 1.11 1.20 1.36 1.40 1.48 1.67 1.85 2.09 2.33 2.52 2.63 2.75 2.85 3.00 3.14 3.17 3.18 3.03 2.95 2.86 2.74 2.73 2.79
0.20 0.23 0.27 0.18 0.21 0.23 0.25 0.27 0.31 0.35 0.41 0.50 0.62 0.63 0.68 0.71 0.70 0.72 0.85 1.03 1.07 1.14 1.26 1.37 1.50 1.68 1.87 2.02 2.15 2.46 2.69 2.79 2.84 2.89 2.96 3.14 3.33 3.22 3.05 3.00 2.93 2.87 2.81 2.70
0.33 0.30 0.32 0.33 0.30 0.31 0.40 0.52 0.49 0.64 0.71 0.67 0.70 0.76 0.78 0.78 0.93 0.94 0.93 1.02 1.09 1.21 1.32 1.45 1.53 1.59 1.61 1.74 1.94 2.18 2.41 2.60 2.62 2.75 2.92 3.01 3.05 3.06 3.11 3.07 2.85 2.70 2.59 2.56
0.48 0.50 0.50 0.50 0.49 0.39 0.45 0.80 0.80 0.88 0.98 0.93 0.96 1.19 1.11 0.85 0.83 0.95 1.04 1.07 1.16 1.31 1.39 1.39 1.43 1.46 1.54 1.70 1.93 2.15 2.36 2.57 2.75 2.89 3.02 3.03 3.07 3.17 3.19 3.14 3.09 3.06 2.93 2.84
0.55 0.60 0.60 0.53 0.48 0.50 0.85 1.13 1.11 1.18 1.22 1.15 1.19 1.26 1.20 1.02 0.93 0.94 1.00 1.05 1.14 1.30 1.45 1.47 1.45 1.62 1.80 1.94 2.10 2.28 2.40 2.49 2.64 2.83 3.05 3.29 3.46 3.38 3.34 3.29 3.21 3.04 2.86 2.72
0.78 0.97 1.09 0.80 0.73 0.96 1.16 0.92 0.98 1.16 1.37 1.39 1.33 1.26 1.20 1.11 1.03 0.97 0.92 0.99 1.18 1.31 1.43 1.57 1.68 1.83 1.99 2.03 2.10 2.30 2.52 2.60 2.67 2.86 2.94 3.09 3.34 3.35 3.27 3.24 3.15 3.05 2.97 2.87
1.14 1.30 1.17 1.00 1.02 0.96 1.05 1.22 1.28 1.37 1.57 1.60 1.45 1.32 1.33 1.25 1.13 1.05 1.01 1.05 1.18 1.30 1.45 1.55 1.73 1.92 2.08 2.17 2.23 2.33 2.47 2.64 2.81 2.91 2.97 3.08 3.25 3.30 3.27 3.18 3.06 2.92 2.77 2.55
1.35 1.49 1.31 1.14 1.11 1.06 1.12 1.32 1.40 1.38 1.42 1.46 1.43 1.36 1.48 1.48 1.32 1.28 1.28 1.26 1.30 1.39 1.47 1.56 1.66 1.86 2.06 2.19 2.24 2.36 2.43 2.49 2.64 2.78 2.90 3.07 3.09 2.96 2.84 2.71 2.64 2.60 2.43 2.30
1.61 1.81 1.73 1.52 1.38 1.30 1.32 1.28 1.36 1.31 1.33 1.34 1.38 1.38 1.45 1.57 1.60 1.52 1.39 1.33 1.38 1.46 1.56 1.60 1.64 1.73 1.97 2.18 2.28 2.33 2.45 2.51 2.50 2.52 2.60 2.76 2.84 2.80 2.67 2.50 2.37 2.30 2.17 2.16
2.01 1.99 2.09 1.95 1.62 1.44 1.50 1.47 1.42 1.37 1.44 1.50 1.47 1.43 1.47 1.61 1.65 1.61 1.50 1.44 1.47 1.51 1.54 1.58 1.68 1.80 1.91 2.18 2.45 2.54 2.52 2.39 2.31 2.23 2.23 2.29 2.31 2.34 2.46 2.35 2.34 2.20 2.07 1.99
1.75 1.96 2.01 1.85 1.67 1.70 1.69 1.68 1.64 1.66 1.65 1.64 1.70 1.68 1.61 1.61 1.62 1.58 1.55 1.54 1.52 1.56 1.62 1.68 1.81 1.88 1.87 1.97 2.25 2.47 2.42 2.27 2.17 2.11 2.11 2.06 2.03 2.07 2.19 2.25 2.21 2.12 2.08 1.92
1.57 1.78 2.00 1.86 1.81 1.77 1.73 1.80 1.83 1.88 1.89 1.81 1.82 1.85 1.77 1.71 1.64 1.61 1.65 1.53 1.41 1.42 1.55 1.65 1.73 1.83 1.90 1.95 2.06 2.16 2.22 2.29 2.17 2.05 2.09 2.13 2.14 2.12 2.12 2.15 2.13 2.04 2.04 1.99
1.53 1.60 1.77 1.71 1.67 1.73 1.68 1.70 1.82 1.93 2.01 2.00 1.97 1.89 1.76 1.76 1.74 1.65 1.51 1.40 1.40 1.46 1.48 1.54 1.61 1.63 1.67 1.82 1.96 2.04 2.07 2.12 2.16 2.16 2.15 2.20 2.24 2.14 2.05 2.02 2.01 1.90 1.83 1.87
1.51 1.41 1.47 1.69 1.76 1.79 1.86 1.89 1.88 1.82 1.76 1.79 1.80 1.79 1.78 1.73 1.67 1.57 1.46 1.44 1.52 1.59 1.56 1.51 1.53 1.53 1.51 1.60 1.83 1.98 1.99 2.15 2.09 2.12 2.13 2.11 2.15 2.17 2.14 2.14 2.09 1.98 1.87 1.83
1.57 1.47 1.50 1.64 1.71 1.82 1.91 1.86 1.76 1.67 1.65 1.63 1.63 1.60 1.61 1.70 1.71 1.71 1.68 1.60 1.57 1.63 1.64 1.66 1.68 1.61 1.60 1.72 1.86 1.94 1.88 1.96 2.03 1.86 1.88 2.01 2.01 2.04 2.09 2.13 2.11 2.02 1.88 1.86
1.54 1.42 1.51 1.64 1.65 1.76 1.69 1.61 1.56 1.45 1.45 1.54 1.62 1.65 1.67 1.71 1.71 1.80 1.83 1.69 1.55 1.56 1.58 1.61 1.63 1.63 1.64 1.75 1.85 1.95 1.92 1.80 1.76 1.78 1.92 2.02 2.07 2.05 2.05 2.01 1.97 1.93 1.88 1.87
1.48 1.46 1.46 1.46 1.50 1.60 1.53 1.50 1.47 1.49 1.44 1.48 1.61 1.69 1.74 1.77 1.74 1.67 1.71 1.80 1.81 1.76 1.61 1.49 1.52 1.45 1.49 1.63 1.69 1.77 1.83 1.80 1.74 1.73 1.86 2.03 2.09 2.07 2.07 2.03 1.99 1.96 1.90 1.88
1.61 1.65 1.59 1.49 1.50 1.58 1.62 1.51 1.43 1.44 1.42 1.44 1.62 1.74 1.74 1.70 1.64 1.64 1.77 1.84 1.84 1.67 1.42 1.37 1.30 1.31 1.32 1.40 1.50 1.48 1.62 1.74 1.77 1.72 1.76 1.81 1.84 1.86 1.84 1.81 1.82 1.83 1.85 1.91
1.86 1.75 1.65 1.59 1.48 1.43 1.56 1.55 1.51 1.46 1.38 1.41 1.57 1.61 1.64 1.56 1.45 1.52 1.70 1.74 1.63 1.44 1.29 1.35 1.33 1.33 1.23 1.29 1.36 1.33 1.45 1.63 1.72 1.71 1.67 1.69 1.67 1.59 1.58 1.65 1.75 1.85 1.89 1.91
1.87 1.70 1.54 1.43 1.46 1.52 1.52 1.53 1.51 1.54 1.58 1.65 1.63 1.57 1.57 1.56 1.46 1.49 1.51 1.56 1.42 1.39 1.20 1.17 1.25 1.32 1.29 1.21 1.17 1.33 1.47 1.58 1.63 1.62 1.62 1.66 1.70 1.65 1.58 1.62 1.72 1.75 1.78 1.77
1.80 1.67 1.59 1.52 1.53 1.61 1.59 1.56 1.53 1.56 1.62 1.72 1.77 1.74 1.70 1.61 1.51 1.51 1.54 1.39 1.24 1.23 1.16 1.17 1.22 1.23 1.23 1.17 1.21 1.29 1.32 1.37 1.39 1.41 1.43 1.51 1.65 1.72 1.67 1.58 1.52 1.54 1.61 1.63
1.84 1.79 1.71 1.55 1.51 1.62 1.79 1.76 1.64 1.57 1.50 1.55 1.61 1.64 1.63 1.61 1.57 1.48 1.55 1.57 1.39 1.19 1.12 1.20 1.15 1.10 1.15 1.17 1.27 1.33 1.33 1.34 1.35 1.39 1.45 1.53 1.67 1.76 1.72 1.58 1.44 1.38 1.45 1.58
1.86 1.80 1.73 1.67 1.61 1.62 1.72 1.68 1.59 1.48 1.38 1.42 1.38 1.40 1.46 1.55 1.64 1.65 1.64 1.57 1.51 1.38 1.19 1.15 1.14 1.09 1.05 1.16 1.29 1.35 1.33 1.31 1.35 1.42 1.45 1.48 1.51 1.56 1.63 1.61 1.48 1.39 1.36 1.42
1.92 1.78 1.65 1.64 1.64 1.60 1.59 1.58 1.66 1.66 1.60 1.60 1.50 1.40 1.39 1.48 1.58 1.64 1.64 1.54 1.37 1.28 1.18 1.14 1.11 1.09 1.03 1.12 1.20 1.25 1.28 1.28 1.29 1.26 1.22 1.22 1.22 1.19 1.22 1.28 1.33 1.35 1.35 1.30
1.74 1.67 1.62 1.54 1.45 1.38 1.50 1.54 1.60 1.70 1.70 1.65 1.56 1.40 1.37 1.46 1.56 1.56 1.47 1.42 1.31 1.18 1.07 0.96 0.91 0.95 1.00 1.01 1.02 1.06 1.10 1.09 1.10 1.20 1.30 1.34 1.18 1.03 0.99 1.04 1.10 1.17 1.20 1.15